QPF
0.16 0.16 0.15 0.17 0.12 0.15 0.23 0.16 0.09 0.08 0.09 0.07 0.04 0.03 0.03 0.04 0.05 0.11 0.11 0.03 0.01 0.01 0.03 0.05 0.05 0.06 0.08 0.09 0.09 0.09 0.08 0.09 0.09 0.09 0.07 0.05 0.05 0.06 0.06 0.06 0.05 0.05 0.05
0.24 0.21 0.17 0.17 0.13 0.12 0.13 0.11 0.09 0.13 0.13 0.12 0.07 0.06 0.06 0.04 0.05 0.05 0.06 0.05 0.03 0.01 0.02 0.04 0.05 0.06 0.07 0.07 0.06 0.06 0.05 0.06 0.07 0.06 0.06 0.05 0.05 0.05 0.05 0.06 0.07 0.07 0.06
0.35 0.32 0.26 0.22 0.17 0.12 0.12 0.10 0.12 0.15 0.16 0.13 0.11 0.09 0.09 0.07 0.05 0.05 0.06 0.08 0.08 0.06 0.04 0.04 0.03 0.04 0.05 0.06 0.07 0.06 0.06 0.06 0.05 0.05 0.06 0.05 0.04 0.04 0.04 0.05 0.05 0.06 0.06
0.35 0.42 0.33 0.24 0.20 0.14 0.15 0.15 0.15 0.17 0.19 0.18 0.17 0.13 0.14 0.14 0.07 0.06 0.07 0.08 0.09 0.08 0.05 0.03 0.02 0.02 0.03 0.04 0.06 0.07 0.07 0.06 0.05 0.05 0.06 0.05 0.05 0.04 0.04 0.04 0.04 0.04 0.05
0.30 0.33 0.31 0.25 0.21 0.18 0.19 0.16 0.20 0.20 0.22 0.19 0.15 0.10 0.08 0.08 0.08 0.07 0.08 0.07 0.06 0.05 0.05 0.04 0.02 0.02 0.02 0.03 0.03 0.04 0.05 0.05 0.04 0.05 0.05 0.05 0.05 0.04 0.04 0.04 0.04 0.05 0.06
0.27 0.30 0.30 0.25 0.21 0.20 0.21 0.21 0.21 0.20 0.20 0.17 0.12 0.09 0.07 0.06 0.06 0.06 0.05 0.04 0.04 0.03 0.04 0.04 0.04 0.03 0.03 0.03 0.03 0.04 0.05 0.07 0.07 0.07 0.06 0.05 0.05 0.05 0.05 0.05 0.05 0.06 0.06
0.28 0.29 0.26 0.25 0.21 0.20 0.20 0.20 0.20 0.20 0.18 0.17 0.16 0.13 0.08 0.05 0.05 0.05 0.04 0.04 0.04 0.03 0.03 0.04 0.04 0.05 0.04 0.03 0.02 0.02 0.03 0.04 0.04 0.04 0.04 0.04 0.04 0.04 0.04 0.04 0.05 0.05 0.05
0.25 0.28 0.28 0.22 0.19 0.19 0.19 0.19 0.18 0.17 0.13 0.13 0.16 0.16 0.13 0.11 0.08 0.06 0.05 0.05 0.05 0.05 0.05 0.04 0.04 0.03 0.03 0.03 0.02 0.02 0.01 0.01 0.02 0.02 0.03 0.03 0.04 0.04 0.05 0.05 0.06 0.06 0.05
0.21 0.21 0.21 0.20 0.18 0.18 0.18 0.18 0.18 0.16 0.13 0.13 0.14 0.16 0.15 0.12 0.08 0.07 0.06 0.06 0.06 0.05 0.05 0.05 0.04 0.04 0.03 0.02 0.02 0.02 0.01 0.01 0.02 0.02 0.02 0.02 0.03 0.03 0.03 0.03 0.03 0.04 0.03
0.15 0.18 0.19 0.18 0.16 0.15 0.15 0.15 0.16 0.15 0.15 0.13 0.11 0.12 0.12 0.11 0.10 0.08 0.06 0.06 0.06 0.05 0.04 0.03 0.03 0.03 0.03 0.03 0.03 0.02 0.01 0.01 0.01 0.01 0.02 0.02 0.02 0.02 0.02 0.02 0.02 0.02 0.02
0.12 0.12 0.13 0.13 0.11 0.11 0.12 0.13 0.13 0.14 0.15 0.15 0.14 0.13 0.12 0.11 0.10 0.10 0.08 0.05 0.04 0.03 0.03 0.02 0.03 0.03 0.03 0.04 0.03 0.02 0.02 0.02 0.01 0.01 0.01 0.02 0.02 0.03 0.03 0.02 0.01 0.01 0.01
0.11 0.12 0.13 0.12 0.11 0.11 0.10 0.11 0.11 0.11 0.11 0.11 0.10 0.10 0.10 0.10 0.09 0.09 0.08 0.06 0.04 0.04 0.03 0.03 0.03 0.03 0.03 0.03 0.03 0.03 0.03 0.02 0.02 0.02 0.02 0.02 0.03 0.03 0.03 0.03 0.02 0.02 0.02
0.10 0.09 0.10 0.10 0.10 0.10 0.10 0.09 0.08 0.07 0.06 0.06 0.07 0.07 0.07 0.07 0.06 0.06 0.07 0.07 0.06 0.05 0.04 0.03 0.03 0.03 0.03 0.04 0.03 0.03 0.03 0.03 0.02 0.02 0.02 0.02 0.02 0.03 0.04 0.04 0.04 0.03 0.03
0.11 0.09 0.09 0.09 0.10 0.11 0.11 0.11 0.11 0.10 0.08 0.08 0.07 0.07 0.07 0.06 0.06 0.06 0.07 0.08 0.08 0.07 0.06 0.05 0.03 0.03 0.03 0.03 0.02 0.02 0.02 0.02 0.02 0.02 0.02 0.02 0.02 0.03 0.03 0.04 0.03 0.03 0.02
0.08 0.07 0.06 0.06 0.08 0.08 0.08 0.08 0.08 0.08 0.08 0.07 0.07 0.07 0.06 0.06 0.06 0.06 0.07 0.08 0.08 0.07 0.07 0.06 0.05 0.04 0.03 0.02 0.02 0.02 0.02 0.01 0.01 0.01 0.01 0.01 0.01 0.01 0.01 0.01 0.01 0.01 0.02
0.06 0.05 0.04 0.04 0.04 0.05 0.05 0.05 0.05 0.05 0.04 0.04 0.04 0.03 0.03 0.03 0.03 0.04 0.05 0.06 0.07 0.07 0.07 0.06 0.05 0.05 0.04 0.03 0.03 0.02 0.02 0.01 0.01 0.01 0.01 0.01 0.01 0.01 0.01 0.01 0.01 0.01 0.02
0.06 0.05 0.05 0.04 0.04 0.04 0.04 0.03 0.03 0.03 0.03 0.04 0.04 0.02 0.02 0.02 0.02 0.02 0.02 0.03 0.03 0.04 0.05 0.05 0.04 0.04 0.04 0.03 0.02 0.01 0.01 0.01 0.01 0.01 0.00 0.00 0.00 0.01 0.01 0.01 0.01 0.01 0.01
0.08 0.06 0.04 0.05 0.06 0.05 0.03 0.02 0.02 0.02 0.02 0.03 0.03 0.02 0.02 0.02 0.02 0.02 0.02 0.02 0.02 0.02 0.03 0.04 0.04 0.04 0.03 0.03 0.02 0.02 0.01 0.01 0.00 0.01 0.00 0.00 0.00 0.00 0.00 0.00 0.00 0.00 0.00
0.09 0.07 0.05 0.05 0.04 0.04 0.04 0.03 0.03 0.02 0.02 0.02 0.02 0.02 0.02 0.02 0.01 0.01 0.02 0.02 0.02 0.02 0.02 0.03 0.03 0.03 0.04 0.04 0.03 0.02 0.02 0.01 0.01 0.00 0.00 0.00 0.00 0.00 0.00 0.00 0.00 0.00 0.00
0.08 0.09 0.09 0.07 0.05 0.04 0.04 0.03 0.03 0.03 0.03 0.02 0.01 0.02 0.01 0.01 0.01 0.01 0.02 0.03 0.02 0.02 0.02 0.02 0.02 0.03 0.03 0.04 0.04 0.04 0.03 0.03 0.01 0.01 0.01 0.00 0.00 0.00 0.00 0.00 0.00 0.00 0.00
0.08 0.08 0.09 0.08 0.06 0.05 0.05 0.04 0.03 0.02 0.02 0.02 0.01 0.01 0.01 0.00 0.01 0.01 0.01 0.01 0.02 0.02 0.02 0.02 0.02 0.02 0.03 0.04 0.04 0.03 0.03 0.03 0.02 0.01 0.01 0.01 0.01 0.02 0.02 0.01 0.00 0.00 0.00
0.07 0.07 0.07 0.06 0.05 0.03 0.03 0.02 0.02 0.02 0.02 0.02 0.02 0.01 0.01 0.00 0.00 0.00 0.01 0.01 0.01 0.01 0.02 0.03 0.03 0.04 0.04 0.04 0.04 0.04 0.04 0.04 0.04 0.03 0.03 0.03 0.02 0.05 0.06 0.03 0.00 0.00 0.00
0.05 0.06 0.05 0.05 0.04 0.02 0.01 0.01 0.01 0.02 0.02 0.02 0.02 0.02 0.01 0.01 0.01 0.01 0.01 0.01 0.01 0.01 0.01 0.01 0.02 0.04 0.04 0.04 0.04 0.04 0.06 0.05 0.06 0.04 0.04 0.06 0.06 0.07 0.04 0.01 0.00 0.00 0.00
0.06 0.06 0.05 0.05 0.04 0.02 0.01 0.01 0.01 0.02 0.03 0.03 0.02 0.02 0.03 0.02 0.01 0.01 0.01 0.02 0.02 0.01 0.01 0.01 0.02 0.03 0.03 0.02 0.02 0.02 0.04 0.05 0.08 0.07 0.04 0.06 0.08 0.07 0.04 0.02 0.00 0.00 0.00
0.06 0.06 0.05 0.04 0.04 0.02 0.01 0.00 0.00 0.02 0.03 0.02 0.02 0.01 0.01 0.02 0.01 0.00 0.01 0.04 0.05 0.04 0.01 0.00 0.00 0.00 0.00 0.00 0.00 0.01 0.04 0.06 0.08 0.08 0.05 0.06 0.08 0.07 0.06 0.05 0.01 0.00 0.00
0.05 0.05 0.04 0.05 0.04 0.01 0.00 0.00 0.00 0.02 0.04 0.04 0.04 0.02 0.00 0.00 0.00 0.00 0.02 0.05 0.05 0.05 0.04 0.03 0.03 0.02 0.01 0.01 0.01 0.02 0.05 0.07 0.07 0.08 0.06 0.05 0.07 0.06 0.07 0.06 0.04 0.02 0.01
MSLP
1014.04 1014.25 1014.41 1014.57 1014.75 1014.98 1015.25 1015.54 1015.83 1016.11 1016.35 1016.57 1016.78 1016.99 1017.24 1017.52 1017.85 1018.20 1018.54 1018.83 1019.05 1019.18 1019.22 1019.20 1019.16 1019.12 1019.11 1019.16 1019.27 1019.41 1019.58 1019.75 1019.90 1020.03 1020.15 1020.26 1020.38 1020.50 1020.62 1020.74 1020.84 1020.91 1020.93
1013.94 1014.10 1014.22 1014.34 1014.50 1014.71 1015.00 1015.33 1015.69 1016.06 1016.43 1016.77 1017.11 1017.44 1017.78 1018.13 1018.48 1018.83 1019.14 1019.39 1019.57 1019.66 1019.69 1019.66 1019.62 1019.58 1019.59 1019.64 1019.73 1019.86 1020.01 1020.16 1020.29 1020.41 1020.51 1020.62 1020.73 1020.84 1020.96 1021.07 1021.15 1021.19 1021.18
1013.97 1014.07 1014.14 1014.22 1014.35 1014.57 1014.88 1015.26 1015.71 1016.19 1016.68 1017.16 1017.62 1018.07 1018.49 1018.89 1019.26 1019.59 1019.87 1020.07 1020.20 1020.26 1020.26 1020.22 1020.18 1020.16 1020.18 1020.24 1020.34 1020.47 1020.60 1020.74 1020.85 1020.96 1021.05 1021.14 1021.24 1021.34 1021.44 1021.53 1021.60 1021.62 1021.58
1014.09 1014.13 1014.15 1014.20 1014.31 1014.53 1014.86 1015.31 1015.83 1016.42 1017.03 1017.63 1018.22 1018.77 1019.27 1019.71 1020.09 1020.40 1020.64 1020.80 1020.88 1020.90 1020.88 1020.84 1020.81 1020.81 1020.84 1020.92 1021.03 1021.16 1021.29 1021.41 1021.52 1021.61 1021.68 1021.76 1021.83 1021.91 1021.99 1022.06 1022.10 1022.10 1022.05
1014.25 1014.25 1014.23 1014.25 1014.36 1014.58 1014.94 1015.43 1016.02 1016.69 1017.40 1018.11 1018.79 1019.42 1019.98 1020.46 1020.85 1021.15 1021.36 1021.48 1021.54 1021.54 1021.51 1021.47 1021.45 1021.46 1021.51 1021.61 1021.73 1021.86 1021.99 1022.11 1022.20 1022.28 1022.33 1022.38 1022.42 1022.46 1022.50 1022.54 1022.55 1022.54 1022.49
1014.45 1014.42 1014.38 1014.39 1014.49 1014.71 1015.09 1015.60 1016.24 1016.96 1017.73 1018.50 1019.24 1019.92 1020.52 1021.03 1021.43 1021.73 1021.93 1022.05 1022.09 1022.10 1022.07 1022.06 1022.05 1022.09 1022.16 1022.26 1022.39 1022.53 1022.66 1022.77 1022.85 1022.90 1022.92 1022.93 1022.93 1022.93 1022.92 1022.91 1022.90 1022.87 1022.82
1014.68 1014.66 1014.62 1014.63 1014.74 1014.96 1015.34 1015.85 1016.49 1017.22 1018.00 1018.78 1019.54 1020.24 1020.85 1021.37 1021.78 1022.09 1022.30 1022.43 1022.51 1022.54 1022.55 1022.57 1022.60 1022.66 1022.75 1022.86 1022.99 1023.13 1023.25 1023.35 1023.41 1023.43 1023.43 1023.39 1023.34 1023.28 1023.22 1023.17 1023.12 1023.07 1023.02
1015.01 1015.02 1015.01 1015.04 1015.15 1015.37 1015.73 1016.21 1016.81 1017.50 1018.24 1018.99 1019.71 1020.38 1020.98 1021.48 1021.90 1022.22 1022.46 1022.64 1022.76 1022.85 1022.92 1022.99 1023.06 1023.15 1023.26 1023.39 1023.52 1023.64 1023.75 1023.83 1023.87 1023.88 1023.84 1023.76 1023.66 1023.55 1023.43 1023.33 1023.24 1023.17 1023.11
1015.48 1015.55 1015.59 1015.66 1015.77 1015.98 1016.29 1016.72 1017.25 1017.85 1018.50 1019.16 1019.81 1020.41 1020.95 1021.42 1021.83 1022.16 1022.44 1022.67 1022.86 1023.02 1023.17 1023.31 1023.44 1023.57 1023.70 1023.83 1023.95 1024.07 1024.16 1024.22 1024.24 1024.23 1024.16 1024.06 1023.92 1023.76 1023.60 1023.45 1023.32 1023.22 1023.15
1016.13 1016.28 1016.39 1016.48 1016.61 1016.79 1017.05 1017.40 1017.83 1018.32 1018.84 1019.38 1019.91 1020.41 1020.87 1021.28 1021.65 1021.99 1022.29 1022.57 1022.83 1023.08 1023.31 1023.51 1023.71 1023.88 1024.03 1024.17 1024.28 1024.38 1024.46 1024.51 1024.52 1024.49 1024.42 1024.31 1024.16 1023.98 1023.79 1023.60 1023.44 1023.31 1023.20
1016.94 1017.18 1017.35 1017.47 1017.60 1017.75 1017.95 1018.21 1018.53 1018.90 1019.29 1019.70 1020.09 1020.47 1020.82 1021.15 1021.47 1021.78 1022.09 1022.41 1022.73 1023.04 1023.34 1023.62 1023.86 1024.07 1024.24 1024.39 1024.49 1024.58 1024.65 1024.69 1024.70 1024.68 1024.62 1024.52 1024.39 1024.21 1024.02 1023.82 1023.63 1023.47 1023.33
1017.85 1018.16 1018.37 1018.52 1018.64 1018.76 1018.91 1019.09 1019.31 1019.56 1019.83 1020.11 1020.37 1020.62 1020.86 1021.09 1021.34 1021.60 1021.90 1022.23 1022.58 1022.94 1023.29 1023.62 1023.91 1024.15 1024.33 1024.47 1024.57 1024.65 1024.70 1024.75 1024.77 1024.78 1024.76 1024.70 1024.60 1024.46 1024.29 1024.10 1023.91 1023.71 1023.54
1018.76 1019.11 1019.35 1019.51 1019.62 1019.71 1019.80 1019.92 1020.07 1020.24 1020.41 1020.58 1020.74 1020.88 1021.01 1021.15 1021.31 1021.51 1021.77 1022.08 1022.43 1022.81 1023.19 1023.55 1023.86 1024.11 1024.29 1024.43 1024.52 1024.58 1024.63 1024.68 1024.73 1024.77 1024.80 1024.80 1024.77 1024.69 1024.57 1024.41 1024.22 1024.02 1023.81
1019.56 1019.93 1020.17 1020.31 1020.40 1020.47 1020.54 1020.62 1020.73 1020.85 1020.97 1021.08 1021.16 1021.22 1021.27 1021.33 1021.41 1021.55 1021.75 1022.01 1022.34 1022.70 1023.08 1023.43 1023.74 1023.98 1024.16 1024.28 1024.35 1024.40 1024.45 1024.50 1024.58 1024.66 1024.74 1024.81 1024.85 1024.85 1024.79 1024.68 1024.52 1024.32 1024.09
1020.19 1020.54 1020.76 1020.88 1020.95 1020.99 1021.05 1021.13 1021.23 1021.34 1021.46 1021.55 1021.61 1021.63 1021.63 1021.62 1021.64 1021.71 1021.84 1022.05 1022.33 1022.66 1023.00 1023.33 1023.61 1023.83 1023.99 1024.08 1024.13 1024.16 1024.19 1024.25 1024.34 1024.45 1024.59 1024.72 1024.83 1024.90 1024.91 1024.86 1024.74 1024.56 1024.32
1020.63 1020.94 1021.12 1021.21 1021.26 1021.29 1021.35 1021.44 1021.57 1021.71 1021.85 1021.96 1022.03 1022.06 1022.04 1022.01 1021.98 1022.00 1022.08 1022.23 1022.44 1022.71 1023.00 1023.28 1023.53 1023.71 1023.83 1023.89 1023.91 1023.91 1023.93 1023.97 1024.06 1024.19 1024.36 1024.53 1024.69 1024.82 1024.89 1024.90 1024.82 1024.68 1024.46
1020.95 1021.19 1021.33 1021.38 1021.41 1021.44 1021.51 1021.62 1021.78 1021.97 1022.16 1022.32 1022.44 1022.49 1022.49 1022.46 1022.42 1022.40 1022.44 1022.53 1022.69 1022.90 1023.13 1023.36 1023.55 1023.69 1023.76 1023.78 1023.77 1023.74 1023.72 1023.74 1023.81 1023.93 1024.10 1024.28 1024.47 1024.63 1024.74 1024.78 1024.76 1024.65 1024.47
1021.23 1021.41 1021.50 1021.52 1021.53 1021.55 1021.63 1021.77 1021.96 1022.19 1022.43 1022.65 1022.81 1022.91 1022.95 1022.94 1022.91 1022.89 1022.90 1022.96 1023.07 1023.22 1023.40 1023.57 1023.70 1023.79 1023.82 1023.80 1023.74 1023.67 1023.62 1023.60 1023.64 1023.73 1023.86 1024.03 1024.20 1024.36 1024.49 1024.55 1024.56 1024.49 1024.35
1021.56 1021.69 1021.73 1021.73 1021.72 1021.74 1021.81 1021.96 1022.17 1022.43 1022.70 1022.95 1023.16 1023.31 1023.39 1023.42 1023.42 1023.41 1023.42 1023.46 1023.54 1023.65 1023.77 1023.88 1023.97 1024.01 1023.99 1023.93 1023.83 1023.73 1023.64 1023.58 1023.57 1023.61 1023.69 1023.81 1023.95 1024.07 1024.18 1024.25 1024.27 1024.23 1024.13
1021.99 1022.07 1022.09 1022.07 1022.05 1022.05 1022.12 1022.25 1022.45 1022.71 1022.98 1023.25 1023.48 1023.67 1023.79 1023.86 1023.89 1023.91 1023.94 1023.97 1024.04 1024.12 1024.20 1024.27 1024.31 1024.30 1024.25 1024.15 1024.02 1023.89 1023.76 1023.66 1023.60 1023.58 1023.60 1023.66 1023.73 1023.80 1023.87 1023.91 1023.92 1023.89 1023.83
1022.49 1022.56 1022.56 1022.54 1022.50 1022.50 1022.54 1022.65 1022.81 1023.03 1023.28 1023.54 1023.77 1023.97 1024.12 1024.23 1024.30 1024.35 1024.40 1024.45 1024.51 1024.57 1024.62 1024.65 1024.65 1024.60 1024.52 1024.39 1024.24 1024.09 1023.93 1023.80 1023.70 1023.62 1023.58 1023.57 1023.56 1023.57 1023.57 1023.56 1023.55 1023.52 1023.47
1023.01 1023.07 1023.08 1023.06 1023.03 1023.01 1023.03 1023.09 1023.21 1023.38 1023.58 1023.79 1024.00 1024.20 1024.36 1024.50 1024.61 1024.70 1024.77 1024.84 1024.90 1024.94 1024.97 1024.96 1024.93 1024.85 1024.74 1024.59 1024.43 1024.26 1024.09 1023.94 1023.81 1023.69 1023.59 1023.51 1023.43 1023.36 1023.29 1023.23 1023.17 1023.12 1023.07
1023.43 1023.51 1023.54 1023.54 1023.52 1023.51 1023.50 1023.53 1023.60 1023.70 1023.84 1024.01 1024.18 1024.36 1024.53 1024.68 1024.81 1024.93 1025.03 1025.11 1025.17 1025.20 1025.20 1025.16 1025.09 1024.99 1024.85 1024.69 1024.52 1024.35 1024.18 1024.02 1023.87 1023.73 1023.59 1023.45 1023.31 1023.16 1023.02 1022.89 1022.78 1022.69 1022.62
1023.67 1023.78 1023.85 1023.89 1023.91 1023.90 1023.90 1023.90 1023.92 1023.98 1024.06 1024.18 1024.31 1024.46 1024.62 1024.78 1024.93 1025.07 1025.18 1025.26 1025.31 1025.33 1025.30 1025.23 1025.13 1024.99 1024.83 1024.66 1024.49 1024.32 1024.16 1024.01 1023.86 1023.70 1023.53 1023.35 1023.15 1022.95 1022.74 1022.55 1022.38 1022.24 1022.14
1023.72 1023.87 1023.99 1024.08 1024.14 1024.18 1024.19 1024.19 1024.19 1024.21 1024.25 1024.32 1024.42 1024.55 1024.69 1024.84 1025.00 1025.14 1025.25 1025.33 1025.36 1025.35 1025.29 1025.19 1025.05 1024.88 1024.70 1024.52 1024.34 1024.18 1024.03 1023.88 1023.73 1023.57 1023.39 1023.18 1022.95 1022.69 1022.43 1022.19 1021.96 1021.77 1021.63
1023.61 1023.81 1023.99 1024.15 1024.27 1024.35 1024.39 1024.41 1024.42 1024.42 1024.44 1024.48 1024.55 1024.65 1024.77 1024.91 1025.05 1025.18 1025.28 1025.34 1025.35 1025.31 1025.21 1025.07 1024.89 1024.69 1024.49 1024.30 1024.12 1023.96 1023.81 1023.67 1023.53 1023.37 1023.17 1022.95 1022.68 1022.39 1022.09 1021.80 1021.53 1021.30 1021.12
Thickness
5736 5736 5733 5732 5732 5732 5731 5730 5731 5731 5731 5730 5732 5732 5731 5730 5729 5726 5722 5720 5719 5717 5715 5714 5713 5712 5710 5708 5706 5705 5703 5701 5700 5698 5696 5695 5694 5693 5692 5691 5690 5689 5687
5733 5732 5731 5730 5730 5730 5730 5729 5729 5729 5727 5726 5727 5727 5727 5725 5723 5721 5718 5715 5713 5712 5711 5710 5709 5707 5705 5704 5702 5700 5698 5697 5695 5694 5692 5691 5689 5688 5687 5686 5685 5684 5683
5730 5728 5726 5725 5725 5727 5726 5725 5725 5724 5722 5723 5721 5721 5720 5718 5717 5715 5712 5709 5707 5706 5705 5704 5703 5701 5700 5698 5697 5695 5693 5692 5690 5689 5688 5686 5685 5683 5682 5681 5680 5679 5678
5725 5721 5720 5720 5720 5721 5720 5720 5719 5717 5716 5715 5713 5712 5712 5711 5710 5708 5706 5704 5703 5701 5699 5697 5696 5694 5693 5692 5690 5689 5687 5686 5684 5683 5682 5680 5679 5677 5676 5675 5673 5672 5670
5718 5716 5714 5714 5716 5716 5716 5715 5714 5711 5708 5707 5705 5705 5705 5704 5703 5702 5700 5698 5697 5695 5692 5690 5688 5687 5686 5684 5683 5681 5680 5678 5677 5675 5674 5672 5671 5669 5668 5666 5665 5664 5663
5711 5711 5711 5710 5710 5711 5710 5708 5706 5706 5704 5702 5700 5698 5696 5696 5695 5694 5694 5692 5690 5688 5685 5683 5680 5679 5677 5676 5675 5673 5671 5670 5668 5666 5665 5663 5661 5660 5659 5658 5656 5655 5654
5705 5704 5705 5704 5704 5703 5702 5702 5700 5698 5696 5695 5690 5687 5687 5688 5687 5687 5686 5684 5682 5680 5677 5675 5673 5672 5670 5667 5665 5664 5662 5660 5658 5657 5655 5653 5652 5650 5649 5648 5646 5645 5644
5697 5697 5696 5696 5696 5696 5695 5694 5693 5691 5689 5689 5685 5679 5674 5673 5677 5678 5677 5676 5674 5672 5670 5667 5665 5663 5662 5659 5655 5653 5652 5650 5648 5647 5645 5644 5642 5641 5639 5637 5636 5634 5633
5689 5689 5688 5688 5687 5688 5687 5686 5685 5684 5681 5681 5680 5676 5670 5665 5664 5665 5666 5665 5663 5662 5660 5659 5657 5654 5652 5649 5646 5643 5641 5639 5638 5636 5635 5634 5632 5631 5629 5627 5625 5624 5622
5678 5678 5678 5678 5677 5678 5678 5677 5676 5677 5675 5671 5671 5670 5669 5667 5660 5654 5653 5653 5653 5651 5650 5649 5646 5644 5641 5639 5636 5633 5630 5628 5627 5625 5624 5623 5621 5619 5617 5615 5613 5612 5610
5666 5666 5667 5667 5667 5667 5667 5666 5666 5666 5665 5662 5661 5660 5659 5658 5657 5651 5644 5642 5641 5640 5640 5638 5635 5633 5631 5629 5626 5622 5619 5617 5615 5613 5612 5610 5608 5606 5604 5602 5601 5599 5597
5653 5654 5655 5656 5655 5655 5655 5655 5655 5655 5654 5652 5651 5650 5649 5647 5645 5643 5638 5634 5631 5630 5629 5627 5625 5623 5621 5618 5615 5612 5609 5606 5604 5602 5600 5597 5595 5593 5591 5589 5587 5585 5583
5641 5641 5642 5642 5642 5643 5643 5643 5643 5642 5642 5641 5640 5640 5639 5638 5638 5636 5632 5627 5623 5621 5619 5617 5615 5613 5610 5607 5604 5601 5598 5595 5593 5590 5588 5585 5582 5580 5577 5575 5572 5570 5567
5629 5628 5629 5630 5630 5630 5630 5630 5630 5629 5629 5629 5629 5628 5628 5628 5628 5626 5623 5618 5614 5611 5609 5607 5605 5602 5600 5597 5594 5591 5587 5585 5582 5579 5576 5573 5570 5567 5564 5560 5558 5555 5552
5618 5617 5617 5618 5618 5618 5618 5618 5618 5617 5617 5617 5617 5616 5616 5616 5616 5615 5613 5611 5606 5602 5598 5596 5594 5591 5589 5586 5583 5580 5578 5574 5571 5567 5564 5561 5557 5554 5550 5547 5544 5541 5539
5606 5606 5605 5606 5606 5607 5607 5606 5605 5605 5605 5604 5603 5603 5603 5604 5604 5603 5602 5600 5599 5595 5590 5586 5583 5580 5577 5575 5572 5570 5568 5565 5560 5557 5553 5550 5546 5542 5538 5535 5532 5529 5526
5594 5594 5594 5594 5594 5594 5594 5594 5593 5593 5592 5592 5591 5591 5590 5591 5590 5591 5590 5589 5587 5584 5579 5575 5573 5570 5567 5564 5562 5560 5558 5555 5551 5547 5543 5540 5536 5532 5528 5524 5521 5518 5515
5582 5581 5581 5581 5582 5581 5581 5582 5581 5580 5580 5579 5579 5579 5578 5578 5577 5577 5577 5576 5574 5572 5568 5564 5561 5559 5557 5554 5552 5550 5549 5547 5543 5539 5534 5530 5527 5523 5519 5515 5512 5509 5506
5570 5570 5570 5569 5569 5569 5569 5569 5569 5569 5568 5568 5567 5566 5565 5564 5563 5563 5563 5563 5562 5561 5558 5555 5552 5550 5547 5545 5543 5541 5541 5538 5536 5532 5527 5523 5520 5515 5511 5508 5505 5501 5498
5558 5558 5558 5558 5558 5557 5557 5557 5557 5557 5557 5556 5555 5554 5552 5551 5550 5550 5550 5549 5549 5548 5547 5545 5542 5540 5537 5536 5534 5531 5530 5529 5527 5525 5521 5518 5514 5509 5505 5502 5498 5495 5492
5547 5548 5547 5547 5546 5546 5544 5543 5546 5547 5546 5545 5544 5543 5541 5539 5537 5537 5537 5535 5535 5534 5534 5533 5531 5529 5526 5524 5523 5522 5521 5520 5519 5518 5515 5512 5509 5504 5500 5497 5493 5491 5488
5537 5537 5537 5536 5535 5533 5532 5533 5534 5536 5536 5536 5535 5533 5531 5530 5528 5527 5525 5524 5523 5522 5521 5521 5520 5518 5516 5515 5514 5514 5512 5511 5509 5511 5508 5507 5505 5501 5498 5495 5491 5488 5485
5528 5528 5528 5527 5525 5522 5522 5524 5524 5526 5527 5527 5527 5526 5526 5522 5519 5518 5517 5516 5514 5512 5511 5510 5510 5508 5507 5507 5506 5505 5505 5505 5504 5506 5505 5502 5502 5499 5497 5494 5490 5486 5483
5520 5520 5520 5519 5517 5514 5514 5515 5516 5519 5520 5519 5519 5518 5514 5511 5509 5508 5509 5509 5508 5507 5505 5504 5503 5502 5502 5500 5499 5499 5501 5502 5503 5503 5503 5499 5499 5497 5496 5492 5489 5486 5483
5514 5514 5513 5511 5509 5507 5507 5507 5508 5512 5513 5512 5510 5508 5507 5503 5501 5501 5502 5502 5501 5500 5499 5498 5498 5497 5496 5496 5495 5494 5496 5497 5497 5499 5500 5497 5496 5495 5493 5491 5489 5486 5483
5508 5508 5507 5505 5503 5501 5500 5501 5502 5506 5506 5505 5503 5500 5497 5496 5495 5494 5494 5494 5493 5492 5492 5493 5493 5494 5494 5494 5493 5492 5492 5493 5494 5494 5496 5495 5493 5492 5490 5490 5489 5487 5483